GW5385 Weather Reports


time (UTC)temp
F
wind
direction
speed
knots
gust
knots
rain 1hr
in
rain 24hr
in
rain mn
in
humidity
%
barometer
mb
20260505021521 47 34 12.2 17.4 0.00 0.00 0.00 39 1018.0
20260505021518 47 42 12.2 17.4 0.00 0.00 0.00 39 1018.0
20260505020017 48 39 13.0 18.2 0.00 0.00 0.00 37 1017.8
20260505014518 50 27 13.9 19.1 0.00 0.00 0.00 33 1017.6
20260505013013 51 32 7.8 17.4 0.00 0.00 0.00 28 1017.4
20260505011517 52 358 8.7 15.6 0.00 0.00 0.00 28 1017.2
20260505010013 53 339 11.3 20.9 0.00 0.00 0.00 24 1017.3
20260505004511 53 342 9.6 21.7 0.00 0.00 0.00 25 1017.2
20260505003040 54 4 13.0 20.0 0.00 0.00 0.00 23 1017.1
20260505001540 54 341 13.0 20.0 0.00 0.00 0.00 22 1017.2
20260505000009 55 333 10.4 19.1 0.00 0.00 0.00 22 1017.1
20260504234509 55 335 13.9 22.6 0.00 0.00 0.00 24 1017.2
20260504233006 55 15 13.9 23.5 0.00 0.00 0.00 25 1017.1
20260504231505 55 330 11.3 20.0 0.00 0.00 0.00 25 1017.2
20260504230004 55 332 11.3 24.3 0.00 0.00 0.00 25 1017.3
20260504224503 54 310 9.6 20.0 0.00 0.00 0.00 25 1017.1
20260504223001 54 356 11.3 19.1 0.00 0.00 0.00 26 1017.2
20260504221600 54 343 10.4 25.2 0.00 0.00 0.00 29 1017.3
20260504220058 55 338 13.0 20.9 0.00 0.00 0.00 27 1017.3
20260504214558 55 333 12.2 18.2 0.00 0.00 0.00 30 1017.3
20260504213053 56 326 13.0 20.9 0.00 0.00 0.00 29 1017.4
20260504211551 54 12 10.4 20.0 0.00 0.00 0.00 31 1017.5
20260504210105 53 335 10.4 20.0 0.00 0.00 0.00 31 1017.7
20260504204557 54 36 13.9 21.7 0.00 0.00 0.00 31 1017.7
20260504203102 53 1 13.9 19.1 0.00 0.00 0.00 33 1017.6
20260504201546 53 340 8.7 17.4 0.00 0.00 0.00 35 1017.6
20260504200045 55 359 11.3 18.2 0.00 0.00 0.00 33 1017.5
20260504194546 55 335 10.4 20.0 0.00 0.00 0.00 32 1017.4
20260504193041 55 331 12.2 20.0 0.00 0.00 0.00 34 1017.6
20260504191542 56 332 10.4 20.0 0.00 0.00 0.00 34 1017.5
20260504190101 55 314 14.8 22.6 0.00 0.00 0.00 34 1017.5
20260504184540 56 14 10.4 19.1 0.00 0.00 0.00 36 1017.4
20260504183036 55 304 8.7 21.7 0.00 0.00 0.00 36 1017.3
20260504181540 55 348 13.0 22.6 0.00 0.00 0.00 35 1017.4
20260504180034 55 333 9.6 19.1 0.00 0.00 0.00 37 1017.5
20260504174532 54 345 9.6 19.1 0.00 0.00 0.00 37 1017.6
20260504173028 53 340 9.6 17.4 0.00 0.00 0.00 38 1017.6
20260504171526 53 352 7.8 16.5 0.00 0.00 0.00 39 1017.7
20260504081600 46 53 12.2 19.1 0.00 0.00 0.00 59 1017.1
20260504044544 55 35 17.4 26.1 0.00 0.00 0.00 40 1012.5
20260504043040 57 30 15.6 20.9 0.00 0.00 0.00 39 1011.9
20260504041539 57 14 10.4 14.8 0.00 0.00 0.00 39 1011.5
20260504040038 57 27 9.6 13.0 0.00 0.00 0.00 38 1011.2
20260504034540 57 20 9.6 13.0 0.00 0.00 0.00 38 1010.9
20260504033040 58 42 12.2 14.8 0.00 0.00 0.00 37 1010.6
20260504031556 59 25 11.3 15.6 0.00 0.00 0.00 37 1010.3
20260504030048 59 37 12.2 14.8 0.00 0.00 0.00 36 1009.9
20260504024548 61 37 10.4 15.6 0.00 0.00 0.00 35 1009.9
20260504023045 62 27 10.4 13.0 0.00 0.00 0.00 33 1009.7